Skip Page Navigation
NASA JPL Caltech
NASA Logo - Jet Propulsion Laboratory + View the NASA Portal
+ Center for Near-Earth Object Studies
JPL Home Earth Solar System Stars & Galaxies Technology
JPL Solar System Dynamics
BODIES ORBITS EPHEMERIDES TOOLS PHYSICAL DATA DISCOVERY FAQ SITE MAP
JPL Small-Body Database Browser
Search: [ help ]  
379466 (2010 CJ183)
Classification: Main-belt Asteroid          SPK-ID: 2379466
Ephemeris | Orbit Diagram | Orbital Elements | Mission Design | Physical Parameters | Discovery Circumstances | Close-Approach Data ]

[ hide orbit diagram ]

For accurate long-term ephemerides, please instead use our Horizons system.This orbit viewer was implemented using two-body methods, and hence should not be used for determining accurate long-term trajectories (over several years or decades) or planetary encounter circumstances.


Orbital Elements at Epoch 2459200.5 (2020-Dec-17.0) TDB
Reference: JPL 15 (heliocentric ecliptic J2000)
 Element Value Uncertainty (1-sigma)   Units 
e .05551664580231321 1.0402e-07  
a 3.141460619396522 5.4143e-08 au
q 2.96705726288757 3.3037e-07 au
i 9.419232595078391 1.2144e-05 deg
node 5.611693252588581 3.9143e-05 deg
peri 149.0746145043163 9.2699e-05 deg
M 358.5017433518861 8.3062e-05 deg
tp 2459208.964076293480
(2020-Dec-25.46407629)
0.00046932 TDB
period 2033.741995731255
5.57
5.2577e-05
1.439e-07
d
yr
n .1770136038669733 4.5762e-09 deg/d
Q 3.315863975905475 5.7149e-08 au
  Orbit Determination Parameters
   # obs. used (total)      112  
   data-arc span      7172 days (19.64 yr)  
   first obs. used      2001-05-24  
   last obs. used      2021-01-11  
   planetary ephem.      DE431  
   SB-pert. ephem.      SB431-N16  
   condition code      0  
   norm. resid. RMS      .57773  
   source      ORB  
   producer      Otto Matic  
   solution date      2021-Feb-24 16:42:30  

Additional Information
 Earth MOID = 1.9795 au 
 Jupiter MOID = 1.66079 au 
 T_jup = 3.187 
[ show covariance matrix ]

Ephemeris | Orbit Diagram | Orbital Elements | Mission Design | Physical Parameters | Discovery Circumstances | Close-Approach Data ]

Physical Parameter Table
Parameter Symbol Value Units Sigma Reference Notes
absolute magnitude H 16.1   n/a MPO471892  

379466 (2010 CJ183)          Discovered 2010-Feb-15 by Pan-STARRS 1 at Haleakala
Reference: Last Updated: 2013-11-20

[ hide close-approach data ]
Close-Approach Data   ...sorted by Date/Time (TDB)
Date/Time (TDB) Time Uncertainty
(days_HH:MM)
Body Nominal Distance (au) Minimum Distance (au) Maximum Distance (au) V-relative (km/s) V-infinity (km/s) JD (TDB) Time Uncertainty (minutes) Semi-major axis (km) Semi-minor axis (km) range-LOV angle (deg) N-sigma BP Orbit Ref. Reference Modified
1951-Dec-26 19:58 00:05 Jupiter 1.72737264845451 1.72737076878851 1.72737452812061 3.53061609427499 3.38888533666845 2434007.331914473 5.19628250468275 211.764050223289 86.4675334631528 84.439312529112 1105342.25928899 T 15 CATAB v2.0f-lin.ifort 2021-Feb-24 16:42:31 2021-Feb-24 16:42
1962-Jun-18 03:37 00:04 Jupiter 1.77056641030142 1.77056481372821 1.77056800687473 3.42227916794697 3.27951418513467 2437833.650602152 4.31891893180367 139.703278504783 74.9640434003703 -79.6134186612615 1241340.77717328 T 15 CATAB v2.0f-lin.ifort 2021-Feb-24 16:42:31 2021-Feb-24 16:42
2036-Mar-09 02:24 00:02 Jupiter 1.95253248540353 1.95253147908352 1.952533491724 3.45363152640248 3.32565128328663 2464761.600067645 1.7102400054272 89.1924044045928 26.8348544938553 -66.2615479172645 1674677.06591901 T 15 CATAB v2.0f-lin.ifort 2021-Feb-24 16:42:31 2021-Feb-24 16:42
2046-Aug-13 23:09 00:02 Jupiter 1.70400790096863 1.70400678456395 1.70400901737448 3.52256073363712 3.37850275260597 2468571.464465396 2.46282812638834 220.358427523242 44.428512427513 -85.0217477286692 1139638.89948905 T 15 CATAB v2.0f-lin.ifort 2021-Feb-24 16:42:31 2021-Feb-24 16:42
2057-Feb-01 19:25 00:03 Jupiter 1.83303244534855 1.83303073182274 1.83303415887442 3.44118766847969 3.30417861661972 2472396.309228747 3.43013158338372 112.515740068948 72.0385556688882 62.4987019097697 1323340.8180562 T 15 CATAB v2.0f-lin.ifort 2021-Feb-24 16:42:31 2021-Feb-24 16:42
2130-Oct-22 12:40 00:10 Jupiter 1.8779880361044 1.87798426299694 1.87799180921516 3.33950262613006 3.20159720072281 2499321.028068978 9.6378892874234 231.256691896114 56.8478845546963 -36.4412032580208 1352082.56997209 T 15 CATAB v2.0f-lin.ifort 2021-Feb-24 16:42:31 2021-Feb-24 16:42
2141-Apr-02 22:07 00:10 Jupiter 1.69066274475321 1.69066160091591 1.69066388860011 3.51702617685991 3.37156826418799 2503136.421429408 9.95944902813548 769.474301749047 48.0543210414056 -89.2141874570674 1145737.00525936 T 15 CATAB v2.0f-lin.ifort 2021-Feb-24 16:42:31 2021-Feb-24 16:42
2151-Sep-21 13:18 00:11 Jupiter 1.89328418661392 1.89327905282511 1.89328932040638 3.47646089407125 3.34529744981308 2506960.054285468 11.1866601367087 292.099878902401 73.1484150783951 29.7201188327404 1291768.13984743 T 15 CATAB v2.0f-lin.ifort 2021-Feb-24 16:42:31 2021-Feb-24 16:42
Ephemeris | Orbit Diagram | Orbital Elements | Mission Design | Physical Parameters | Discovery Circumstances | Close-Approach Data ]
ABOUT SSD CREDITS/AWARDS PRIVACY/COPYRIGHT GLOSSARY LINKS
FirstGov 2021-Mar-01 01:00 UT
(server date/time)  
NASA Home Page
Site Manager:   Ryan S. Park
Webmaster  Alan B. Chamberlin